Theta_e
305 305 305 306 306 306 306 307 307 307 306 302 301 302 297 295 295 306 307 307 307 295 285 289 290 294 293 298 299 299 298 297 295 295 296 296 296 296 295 294 294 292 294 293 292 292 292 291 290 289 292 292 295 294 293 292 292 290 289 293 292 306 285 282 283 283 285 287 289 290 291 291 289 289 287 286 287 285 282 277 278 280 279 279 277 275 277
304 305 305 305 306 306 305 306 306 307 306 302 303 299 298 295 294 298 304 306 303 296 288 286 284 289 297 296 298 300 299 298 297 295 294 295 295 294 294 295 296 295 295 294 294 294 289 291 293 292 292 294 295 293 292 293 293 295 293 291 293 286 284 284 280 277 281 280 281 285 288 289 285 286 286 287 287 286 285 283 282 281 279 282 277 278 276
304 304 304 304 304 305 305 305 305 306 306 305 302 299 299 296 295 295 299 304 303 294 292 291 286 289 292 293 295 296 297 297 298 299 297 298 295 294 293 295 295 294 296 295 295 296 294 291 292 292 292 293 296 295 293 295 294 296 299 310 295 289 284 282 278 276 275 272 270 273 279 283 284 287 287 288 288 285 286 280 279 277 279 281 276 275 283
303 304 304 304 304 304 305 305 305 305 305 306 302 300 297 292 284 290 296 298 297 296 297 295 293 288 293 289 291 295 293 297 299 300 298 297 296 294 295 293 295 292 293 292 293 294 295 293 290 292 291 292 295 294 292 294 294 303 313 304 295 288 285 285 285 283 282 284 283 284 286 283 285 285 287 287 287 286 285 280 277 279 278 280 280 283 287
303 303 304 304 304 304 304 305 305 305 305 306 301 300 294 291 287 287 289 296 292 293 296 296 296 292 295 287 292 292 293 295 297 298 296 299 297 296 294 295 293 292 292 289 289 291 293 294 291 290 291 291 294 295 294 296 299 313 309 301 288 284 284 285 286 286 288 288 287 287 288 287 287 286 286 286 286 286 285 282 282 282 282 281 285 286 285
303 303 304 305 305 305 305 304 304 305 305 305 303 295 293 287 288 294 298 291 286 291 288 297 295 296 295 291 293 293 293 293 291 295 298 298 298 295 294 294 294 291 292 289 287 289 289 291 288 291 292 294 293 297 297 296 303 311 299 301 291 284 282 284 285 286 287 287 287 287 287 286 287 287 286 286 287 285 285 285 287 285 284 283 287 284 284
303 303 303 304 305 305 305 304 303 305 305 304 300 292 297 295 294 296 299 290 291 293 295 297 296 294 294 289 293 292 293 293 294 294 294 297 294 295 287 291 292 292 293 293 289 288 287 285 288 290 290 291 292 291 293 296 296 300 293 292 287 288 282 284 285 286 286 286 286 286 286 284 285 286 286 287 287 287 287 287 288 287 287 289 288 287 286
303 303 303 303 303 305 305 304 304 304 305 301 298 300 294 294 295 294 301 300 298 297 296 294 293 291 295 287 289 292 292 291 294 296 294 288 293 295 294 292 293 295 295 292 290 289 292 292 290 291 292 290 291 288 291 291 296 293 291 290 291 290 282 289 284 283 283 285 286 285 285 284 284 286 286 286 287 287 287 287 288 288 287 288 288 286 287
302 303 303 303 303 304 304 304 304 304 305 295 294 293 300 298 302 301 295 292 296 297 294 292 289 288 287 288 291 293 294 293 294 294 298 296 294 296 294 294 294 293 293 293 292 293 293 293 294 295 293 292 293 293 293 295 292 292 289 289 290 290 281 284 283 281 284 284 285 286 285 284 283 284 284 285 286 284 286 285 288 286 286 288 285 283 285
302 302 302 302 303 304 304 304 305 304 305 297 296 291 297 298 301 299 298 291 296 295 297 296 294 289 288 293 291 292 292 294 296 292 293 296 297 297 296 295 294 292 291 293 295 297 296 296 297 298 298 297 295 296 296 296 295 291 292 288 286 288 283 283 279 280 282 283 284 283 282 283 283 284 284 287 288 289 289 288 288 290 289 285 280 284 286
302 302 303 302 302 302 303 304 304 305 302 297 294 293 295 293 292 294 296 288 291 294 294 293 293 295 295 296 295 296 296 296 295 290 288 295 297 298 297 296 293 292 292 296 299 297 297 297 297 297 297 296 295 295 295 295 296 295 292 287 285 286 287 282 283 282 275 280 281 281 280 276 282 285 289 289 287 287 286 286 287 288 289 284 286 286 284
302 303 303 303 302 302 302 303 304 305 304 298 300 296 298 298 296 295 291 285 286 294 294 291 293 295 296 297 297 296 295 295 295 295 294 295 298 299 298 295 293 288 293 297 298 297 298 297 296 293 293 292 291 291 292 293 295 293 294 294 286 286 285 281 281 282 279 279 282 280 278 281 287 287 288 289 289 288 287 288 287 286 286 284 283 283 283
302 303 303 303 303 303 303 303 304 304 305 300 299 294 299 301 295 292 290 288 284 289 289 290 294 295 296 296 296 297 299 299 299 298 298 297 297 298 298 297 295 297 298 297 297 296 294 291 290 289 290 291 291 291 291 290 290 292 290 291 291 286 286 282 280 279 279 278 275 273 282 287 286 286 288 290 287 286 285 283 283 284 285 285 283 283 284
302 303 303 302 303 303 303 303 303 304 305 304 299 296 299 301 294 292 290 285 284 288 290 289 291 290 292 293 293 294 296 296 298 299 296 299 297 297 299 298 298 298 298 298 293 294 291 287 287 287 287 286 287 288 291 291 292 292 292 291 293 291 288 286 285 284 283 282 278 283 288 288 290 287 286 286 286 283 283 280 280 284 283 283 283 283 284
302 303 303 303 302 303 303 303 303 304 304 304 301 300 300 300 299 295 295 291 283 287 288 281 288 292 292 292 293 292 293 295 295 294 298 299 297 299 300 301 299 298 298 296 291 291 289 289 288 287 285 285 283 285 289 287 290 293 294 294 293 293 290 289 288 285 288 284 283 281 281 281 285 284 287 288 288 285 286 286 279 284 282 284 285 284 285
302 302 303 303 302 303 303 303 303 303 304 304 299 299 299 301 301 299 295 290 286 280 285 289 290 290 289 289 292 290 289 290 292 294 294 296 297 299 298 299 299 299 296 292 290 290 287 287 286 287 285 287 289 288 285 287 286 290 291 294 293 293 294 290 289 285 283 283 281 282 280 283 282 285 288 288 288 287 286 283 279 282 284 285 286 285 284
302 302 302 302 302 302 302 303 303 303 303 304 299 299 298 302 298 296 293 292 290 283 292 291 291 289 288 288 293 293 294 289 293 289 289 292 295 296 297 300 301 300 296 293 290 289 286 287 289 288 289 291 287 287 290 285 283 286 291 291 291 289 287 285 285 285 286 285 282 281 284 281 285 286 287 288 287 288 287 278 276 284 285 286 286 286 286
301 302 302 302 302 302 302 302 302 303 303 304 300 297 298 301 301 298 294 290 286 286 290 292 289 285 284 288 288 292 295 295 295 296 292 294 294 293 295 298 295 302 300 291 290 287 287 287 285 286 285 293 291 290 284 289 285 285 285 286 283 285 282 283 283 285 284 284 283 283 284 286 288 287 288 287 288 286 278 278 280 286 285 287 286 286 286
301 302 302 302 302 302 302 303 303 302 303 303 301 297 297 301 301 299 294 291 289 283 292 297 295 291 293 296 293 294 295 294 293 289 287 289 292 297 297 299 301 290 298 288 291 287 287 287 291 289 287 288 291 285 292 288 287 289 289 284 284 285 284 284 284 283 283 283 281 282 283 289 290 288 289 290 288 278 276 282 286 287 286 287 288 288 287
302 302 302 302 302 303 303 302 302 302 303 303 301 295 297 299 300 298 294 289 290 287 290 292 294 291 294 292 290 289 291 294 294 291 289 286 297 297 294 289 296 296 292 293 286 289 287 285 287 289 285 286 288 293 286 287 292 287 288 290 285 286 283 283 283 284 282 282 280 280 278 287 290 290 288 292 282 282 285 287 288 290 289 288 288 289 289
301 301 302 302 302 302 302 302 302 302 302 302 301 296 294 299 299 300 299 295 290 285 287 295 295 294 293 292 292 292 291 288 290 289 292 293 296 293 284 286 290 291 286 289 285 286 287 284 286 286 289 288 289 289 284 285 286 294 293 289 288 293 284 284 284 287 280 281 279 280 287 289 294 290 283 288 288 289 289 289 287 288 288 289 289 289 290
301 302 302 302 302 302 302 302 302 302 302 302 301 297 293 297 299 300 300 299 292 287 290 295 297 296 298 299 299 298 296 295 295 296 293 289 294 293 291 293 292 292 293 293 288 288 290 287 290 284 284 285 288 284 287 284 282 289 293 292 284 294 287 287 284 290 285 283 285 291 290 291 292 291 289 289 290 290 290 289 290 289 289 290 289 290 291
301 301 301 301 302 302 302 302 302 302 301 302 300 296 293 296 296 299 298 293 295 295 296 294 295 296 297 298 300 300 300 300 298 297 297 292 288 292 291 291 290 297 295 296 289 289 288 288 284 289 284 286 285 284 286 286 283 286 284 293 290 295 295 294 291 289 294 294 294 293 290 291 293 296 294 292 292 292 291 290 289 289 290 291 291 291 291
301 301 301 301 301 301 301 302 302 302 302 302 300 296 295 296 297 297 294 294 290 286 290 293 290 286 290 291 295 298 298 298 299 298 299 298 288 287 293 295 298 295 293 296 297 291 289 288 286 289 283 289 290 284 283 282 284 287 287 286 289 293 292 290 288 290 287 283 290 290 291 292 293 292 293 293 291 291 291 290 290 291 292 292 291 291 290
301 301 301 301 301 301 302 302 302 301 301 301 301 300 299 297 298 297 292 285 286 285 281 285 288 292 294 297 298 295 297 298 299 298 297 298 295 291 289 295 298 294 293 296 295 291 289 285 286 285 282 290 291 283 290 285 284 290 284 286 286 286 292 287 287 285 285 284 288 288 289 289 290 289 289 290 291 292 292 291 291 291 292 292 292 291 290
300 300 301 301 300 301 301 302 302 301 301 301 300 296 295 295 298 298 295 294 292 289 282 281 287 297 295 293 292 295 297 297 296 296 296 296 297 296 295 296 295 297 296 295 294 291 287 286 286 286 284 286 295 285 285 288 286 287 284 285 288 289 292 281 287 284 285 286 286 286 287 285 286 288 289 289 290 290 290 291 292 291 291 292 292 292 291
300 300 300 301 301 301 301 301 301 300 300 300 300 297 296 297 299 296 293 292 287 282 285 282 287 291 293 291 293 294 296 296 295 295 295 296 296 296 295 294 293 293 293 292 292 289 287 286 286 284 288 286 291 286 288 286 286 285 283 286 288 288 285 287 286 282 282 282 283 284 281 277 283 287 289 290 290 291 291 293 294 293 292 292 292 292 292
300 300 300 301 301 301 301 301 301 301 301 301 299 298 298 297 298 299 299 296 290 283 284 284 285 288 295 290 295 296 296 296 295 294 294 294 294 295 294 294 294 292 291 290 286 286 285 285 284 289 289 289 287 285 290 287 287 285 285 285 287 286 287 286 282 279 280 284 285 285 286 285 285 288 289 290 291 292 292 292 293 293 293 292 291 291 289
300 300 300 299 300 301 301 300 300 300 301 299 297 296 296 298 298 299 299 300 297 291 287 287 290 288 282 287 295 292 295 296 294 293 293 293 293 294 295 295 294 294 293 290 286 286 285 286 289 286 286 291 287 283 286 281 282 280 283 286 288 289 288 287 287 286 285 286 286 286 286 286 286 287 289 291 293 293 292 293 293 292 292 291 290 290 289
299 299 300 300 300 300 301 301 301 300 300 297 295 292 288 290 297 297 299 299 297 294 285 283 281 284 292 291 290 291 292 294 293 292 291 292 293 294 295 295 294 295 293 287 286 285 286 285 287 290 292 295 286 285 282 281 280 281 284 285 288 288 288 290 291 288 287 286 286 286 286 286 287 288 288 289 291 292 290 290 291 290 289 289 289 287 287
299 300 300 300 300 300 300 300 301 301 300 296 292 284 283 282 290 299 300 299 299 294 287 286 283 288 286 291 290 290 291 293 291 292 292 292 293 293 294 295 293 293 286 287 287 286 287 284 285 288 292 293 289 284 282 282 280 281 282 285 286 286 287 288 289 288 288 288 288 288 287 287 287 286 287 286 287 287 288 290 293 295 291 291 288 288 287
299 299 300 300 300 300 300 300 301 301 299 295 290 287 288 290 295 299 301 300 298 293 286 282 282 283 283 285 288 292 293 293 292 292 291 293 291 293 293 294 291 294 290 287 286 287 285 286 287 288 288 292 290 284 284 282 279 280 284 283 283 285 286 286 286 286 286 287 287 284 283 283 282 285 285 285 285 286 288 289 289 292 296 291 288 287 286
299 299 299 299 299 300 299 300 300 299 295 298 301 301 301 301 301 301 300 299 296 291 289 284 281 284 280 283 286 289 291 290 290 292 289 294 290 293 289 292 288 288 295 289 285 284 288 287 288 286 289 293 286 284 283 281 282 284 284 285 284 284 285 285 285 284 285 285 286 284 282 283 285 285 286 286 286 286 287 288 287 288 288 288 287 288 288
299 299 300 299 299 300 300 300 301 301 300 296 291 293 296 300 300 301 300 298 291 288 287 284 282 281 281 287 280 286 294 288 287 290 285 292 292 291 287 290 290 287 289 287 287 286 287 287 284 285 288 285 287 283 280 282 285 286 286 286 286 286 286 285 285 286 287 287 286 286 287 287 286 286 286 286 287 288 288 287 288 288 288 289 288 286 285
299 299 299 299 299 300 300 299 296 295 291 292 292 295 297 300 300 301 299 294 285 284 284 284 284 280 280 280 279 283 293 289 285 289 286 288 293 287 288 285 286 284 285 292 285 285 284 285 288 283 281 286 283 279 281 283 283 284 283 284 285 286 284 283 284 286 286 287 286 286 286 285 284 285 286 286 287 288 288 288 289 290 289 288 287 286 285
299 299 300 301 300 299 297 296 294 291 289 289 291 297 300 301 301 300 299 298 291 284 284 283 283 280 281 277 277 282 293 286 287 288 288 286 287 290 288 286 282 286 291 286 283 286 283 289 285 280 286 281 279 281 282 283 283 282 283 283 285 285 284 285 286 285 285 285 285 285 285 285 284 285 286 287 287 288 290 290 289 290 290 288 287 285 284
299 299 299 299 297 293 289 288 292 292 290 294 297 300 300 300 300 299 296 294 295 295 285 283 280 281 282 281 283 281 286 281 286 283 284 285 283 286 286 284 281 285 285 283 284 282 285 290 283 280 282 279 281 283 285 285 284 283 283 284 286 286 286 285 287 286 284 284 284 284 284 283 284 285 286 287 288 289 289 289 289 288 287 287 287 286 286
299 299 296 292 289 285 284 285 288 294 299 298 300 295 294 294 285 286 286 285 287 289 285 285 281 284 286 283 280 289 287 281 285 282 283 284 283 282 285 284 283 283 277 281 283 289 285 284 282 280 281 285 286 286 286 287 286 285 286 286 286 286 286 286 286 285 283 282 282 282 283 283 283 284 286 287 288 289 290 291 290 289 288 288 288 288 287
298 295 292 291 286 284 284 284 295 301 298 297 296 287 284 285 284 282 283 285 285 281 285 283 282 286 285 282 284 287 286 282 282 283 279 284 281 278 284 279 284 283 279 279 281 290 279 281 282 281 279 282 283 285 288 287 287 288 288 288 288 287 287 286 287 286 285 285 286 286 285 284 284 285 287 288 290 291 291 290 289 289 288 288 287 287 287
293 287 286 285 285 287 293 297 302 298 294 286 287 285 282 284 282 279 285 281 281 284 284 280 286 286 287 284 283 283 289 284 280 280 282 282 287 279 283 281 284 280 276 277 278 286 278 275 281 279 278 281 282 286 285 286 286 287 287 288 288 288 288 288 287 288 288 288 288 288 287 286 287 287 287 288 290 290 290 289 290 290 289 288 289 288 288
291 288 286 284 288 291 293 296 296 292 287 284 283 283 282 279 283 283 282 280 279 280 285 283 285 285 287 287 286 282 289 290 286 285 284 281 285 285 280 277 284 278 276 276 279 280 278 276 275 275 277 282 284 284 283 285 286 287 287 287 287 288 287 287 288 288 287 287 287 287 287 287 287 288 289 290 291 291 292 291 289 289 288 288 289 289 290
292 290 291 294 294 294 292 290 287 284 284 285 281 277 280 280 283 281 283 277 278 283 283 285 281 283 284 287 285 286 285 287 285 285 283 279 285 282 280 281 283 277 275 278 281 278 276 274 275 274 279 283 285 284 282 282 284 284 285 286 287 288 287 287 287 287 288 287 287 287 287 287 287 288 290 291 291 292 292 291 290 290 290 290 290 289 290
298 297 296 290 289 286 286 283 284 283 278 278 278 275 280 277 279 278 278 281 284 283 284 288 285 288 287 289 284 286 284 287 285 284 283 281 284 284 281 279 279 274 278 282 279 277 275 275 272 277 281 281 282 283 283 284 285 285 286 286 286 286 287 287 287 287 287 288 287 287 288 287 289 291 293 292 292 291 291 290 291 291 290 290 291 290 291
295 294 289 285 284 284 284 276 284 280 277 278 276 272 276 275 277 280 278 279 281 281 284 282 283 284 281 287 285 283 284 286 286 283 283 284 281 279 279 276 277 281 282 277 276 274 275 276 279 281 281 280 283 282 281 283 283 283 284 285 285 284 285 286 286 286 286 287 287 288 288 289 290 292 294 293 293 292 291 290 291 291 291 290 290 290 291
286 284 284 283 281 283 281 275 284 279 275 276 278 274 275 273 276 278 278 282 284 282 285 284 285 284 283 283 284 285 285 282 286 281 278 281 277 279 277 276 279 275 275 273 273 273 271 274 280 282 282 282 283 284 284 284 284 284 285 284 284 284 284 285 285 286 286 286 286 288 289 291 292 292 293 293 293 293 291 290 290 290 290 290 290 290 290
284 283 282 278 276 280 279 275 278 273 276 278 276 276 277 278 280 280 283 285 283 284 284 285 285 285 282 284 282 281 283 283 280 280 282 280 276 275 279 281 279 273 273 272 269 268 273 279 279 279 280 281 282 283 283 283 284 284 283 284 285 285 285 285 285 285 286 286 288 290 291 292 292 293 293 294 294 292 290 291 291 291 291 290 290 291 290
285 285 284 283 278 279 282 275 276 276 277 279 280 281 282 282 283 284 285 286 285 286 286 284 284 283 281 281 280 280 280 280 277 281 281 275 273 277 281 277 274 275 273 271 269 270 275 279 280 281 281 281 282 283 283 283 283 283 284 285 285 285 284 285 285 285 286 288 290 291 292 292 292 293 293 293 291 290 290 291 291 291 291 292 291 290 289
282 285 283 276 274 278 276 278 281 281 281 281 282 282 283 284 283 282 284 285 286 286 284 284 281 281 280 280 281 277 278 278 277 278 281 279 280 276 275 275 274 275 274 271 274 278 279 278 279 281 282 282 281 282 283 284 284 284 284 285 285 285 284 284 285 286 289 290 292 292 293 292 293 293 293 293 291 288 290 291 291 291 291 290 289 289 289
286 284 280 279 279 278 277 281 281 280 281 282 282 282 282 282 283 283 284 284 285 285 285 283 279 280 277 283 279 278 276 281 276 276 281 279 275 273 274 272 272 271 274 277 277 277 278 280 281 281 281 282 282 283 284 284 284 285 285 286 286 286 285 285 286 289 291 292 293 294 294 294 294 293 292 290 289 288 290 290 291 290 290 289 288 287 286
284 283 284 281 278 278 280 282 282 280 281 280 282 280 280 281 282 283 284 283 283 285 285 284 284 280 280 282 278 279 277 279 278 280 277 275 274 274 275 272 272 269 270 276 277 278 280 281 281 280 281 282 283 284 284 286 287 289 289 288 287 287 286 287 289 292 293 294 293 293 294 293 293 291 290 290 289 289 289 289 289 289 287 287 287 286 286
285 284 283 284 278 276 281 277 277 275 277 280 281 281 282 282 283 282 284 283 283 283 280 277 278 278 277 277 276 274 277 283 279 275 275 274 276 274 271 271 272 275 277 278 278 280 280 280 280 280 281 282 283 285 286 289 292 293 291 291 291 289 290 291 293 294 294 293 293 290 292 293 292 291 289 289 289 289 288 288 287 288 287 285 285 286 286
283 279 280 281 284 281 282 281 281 281 281 282 282 281 281 280 280 281 284 284 283 280 277 276 278 277 277 275 276 278 280 280 278 277 273 272 275 272 269 273 279 279 279 279 280 281 282 282 281 282 282 284 287 287 288 290 292 293 293 293 293 294 294 294 294 295 295 294 293 292 292 291 288 288 288 289 288 288 288 287 286 285 285 285 284 285 286
Wind_Speed
21 22 22 21 22 23 24 24 23 23 24 12 9 5 4 5 5 11 12 8 5 6 2 2 2 1 2 4 2 1 2 2 2 3 2 2 1 0 1 4 3 4 3 2 2 4 2 5 4 2 2 3 7 6 7 6 5 5 1 2 1 3 1 0 4 6 7 5 1 3 3 5 4 2 2 2 0 3 4 3 2 2 2 1 2 3 6
20 20 21 21 21 22 24 23 22 22 22 11 8 3 3 4 6 8 4 5 3 3 1 3 3 4 6 3 4 3 2 1 4 1 3 0 1 1 1 2 4 2 2 3 3 5 1 3 3 2 2 1 5 4 7 7 3 3 4 4 4 1 2 3 2 4 6 4 4 4 3 3 1 2 2 1 2 3 2 4 1 1 6 7 4 11 4
20 20 20 20 21 20 21 22 21 21 21 16 6 4 4 6 4 4 9 7 6 3 1 1 1 3 4 4 8 6 2 3 3 0 3 1 2 0 2 3 2 1 1 1 0 3 6 2 2 2 2 4 1 5 6 5 2 2 3 3 6 1 3 4 2 5 6 4 1 2 3 4 1 1 1 1 4 4 1 2 1 3 3 4 4 5 7
19 19 19 18 18 19 19 20 19 19 20 18 6 3 3 5 4 7 7 6 7 5 1 5 2 2 6 5 4 1 2 5 5 2 5 2 2 3 2 1 1 2 1 1 2 5 2 4 2 3 2 2 2 2 5 6 4 4 7 6 4 1 1 3 6 8 9 10 6 3 3 1 2 3 1 3 1 2 2 4 2 8 3 5 7 7 11
19 19 18 18 17 18 18 18 19 19 19 19 6 3 2 1 1 4 8 7 4 4 6 5 5 3 3 2 2 4 3 3 6 1 1 1 3 3 0 0 1 2 1 3 3 2 1 2 0 4 3 3 2 4 4 2 4 6 5 4 6 2 1 5 6 8 10 8 7 5 5 6 5 6 7 5 4 4 5 6 9 4 0 13 5 11 10
18 18 18 18 18 18 17 18 19 19 20 20 5 2 2 2 1 2 1 1 7 9 4 10 9 2 2 4 1 3 4 4 3 6 2 5 1 1 2 1 1 4 6 3 1 1 2 1 3 1 2 1 2 1 0 3 4 5 2 1 3 5 4 4 4 8 9 8 6 5 2 5 6 7 8 7 7 5 8 10 8 4 7 15 10 5 6
18 18 18 18 17 17 16 16 16 18 19 14 1 3 2 1 2 2 2 2 2 2 7 7 4 8 3 3 1 5 5 8 4 2 5 5 3 1 3 3 4 2 1 0 2 1 1 3 2 3 2 5 2 1 2 4 2 2 1 2 2 3 5 5 5 7 6 6 7 5 7 5 4 8 10 10 9 12 13 12 8 11 14 15 12 10 11
17 17 17 17 17 17 16 16 16 15 18 10 2 4 2 3 3 3 3 3 7 9 8 4 5 7 3 3 3 1 1 4 4 3 2 3 4 1 3 5 6 6 2 2 2 5 6 5 5 2 3 3 1 3 6 2 1 1 4 2 1 4 5 5 2 2 6 7 7 4 6 8 9 11 9 9 11 12 11 7 12 7 9 14 14 13 18
16 16 16 16 16 16 15 16 15 14 12 5 5 4 4 3 3 4 6 8 5 3 3 3 3 6 2 3 4 3 5 6 3 5 3 7 7 6 7 3 5 2 3 3 5 5 5 5 8 7 4 8 6 4 5 6 3 3 2 1 1 3 4 2 2 2 7 2 7 9 3 4 9 10 4 10 10 9 9 9 11 6 14 14 6 8 12
16 15 15 15 15 15 15 14 13 11 8 2 3 2 5 4 5 5 3 5 3 7 3 7 4 7 4 5 3 2 4 1 5 7 4 1 0 2 4 3 3 6 4 7 7 5 4 8 10 10 9 7 6 6 6 8 8 5 8 1 4 5 5 3 2 3 8 4 3 0 1 5 12 13 12 17 15 14 10 7 5 11 10 6 8 13 5
16 15 14 15 15 14 14 13 12 8 4 4 4 3 4 4 5 5 3 5 4 5 7 8 8 5 2 4 6 6 6 7 3 4 5 2 2 3 5 6 7 7 6 4 1 3 9 9 9 7 10 10 9 8 8 9 6 8 9 3 1 4 6 4 3 4 5 1 2 1 2 8 15 3 12 17 13 15 14 13 13 9 8 7 6 6 2
16 15 14 14 14 14 12 12 11 10 3 1 0 3 2 0 1 1 3 4 7 1 5 8 7 6 7 7 8 9 9 8 7 2 12 7 8 10 11 6 2 7 2 2 4 5 7 5 4 3 3 2 2 3 2 8 10 3 5 9 7 6 4 4 3 2 5 1 2 1 9 15 2 1 1 5 8 6 14 13 6 6 5 2 2 2 3
15 15 14 13 13 12 12 10 10 9 6 0 1 2 1 2 2 3 3 4 8 3 5 9 7 12 12 13 13 13 12 12 10 9 11 15 15 10 5 6 6 7 2 6 8 6 5 7 7 5 8 5 5 6 8 6 6 7 4 2 9 7 7 4 2 3 2 1 2 2 12 2 1 4 1 1 3 1 2 4 3 4 7 8 5 4 2
15 15 14 13 13 13 12 11 10 9 8 3 2 2 1 2 3 2 2 2 8 5 6 13 14 15 16 17 16 18 16 16 13 10 15 10 14 16 9 5 6 1 1 1 1 1 6 1 6 4 6 2 3 6 6 6 10 10 9 7 5 11 4 4 5 4 9 6 8 14 7 12 11 4 3 7 6 6 8 8 3 2 3 4 7 4 3
15 15 14 13 13 13 12 11 11 10 10 7 2 4 4 4 4 3 2 3 10 8 6 10 0 1 6 8 8 10 9 8 8 9 9 8 9 6 5 6 1 1 0 1 2 1 5 2 7 7 3 3 8 7 1 4 4 10 13 11 9 9 13 7 7 6 10 8 9 5 6 13 7 2 3 1 1 4 4 4 2 1 4 3 7 6 4
16 16 15 14 14 14 13 13 13 11 10 9 3 4 4 4 3 3 4 5 3 10 6 11 14 8 9 9 7 10 10 9 9 10 11 8 8 8 3 1 1 2 1 3 1 2 2 5 8 8 9 7 2 2 4 1 2 1 2 9 6 6 4 4 13 3 3 3 7 7 10 9 4 2 1 1 1 6 4 2 6 3 4 4 5 5 4
17 16 16 15 14 15 14 12 12 12 12 11 4 4 6 5 4 4 5 5 6 15 4 6 8 7 6 6 6 6 4 6 6 7 6 7 3 3 6 3 1 2 3 2 2 3 3 5 6 8 6 2 3 4 3 0 2 1 2 4 4 9 3 3 5 9 10 9 6 11 5 4 1 4 1 0 2 1 4 5 6 5 4 5 4 5 4
18 17 17 16 16 15 15 13 13 13 13 13 7 5 4 4 7 4 4 8 9 11 12 7 8 10 7 3 6 7 7 6 5 3 5 6 6 5 4 2 2 3 6 6 3 5 7 8 10 9 11 4 2 3 8 2 3 4 4 6 4 5 3 3 12 11 7 6 8 2 5 2 2 2 2 2 1 3 2 10 4 5 5 5 4 5 4
19 19 18 18 17 17 16 15 15 15 13 13 7 6 6 6 6 7 7 7 8 13 5 4 9 9 6 6 8 6 5 7 7 8 7 10 5 1 2 4 1 3 1 2 3 5 6 8 4 4 7 3 3 7 0 6 7 2 5 2 1 2 4 1 2 9 12 10 8 8 3 3 3 1 5 3 1 3 6 4 1 9 6 5 5 5 4
19 19 19 18 17 17 16 16 15 15 15 15 9 7 5 3 6 9 10 9 5 12 13 12 6 16 7 7 7 7 6 5 5 9 7 12 4 10 9 8 1 3 3 1 4 2 3 6 5 0 4 3 4 2 1 4 1 5 2 1 3 4 5 4 7 1 4 3 4 2 9 1 3 5 2 1 2 4 4 4 2 5 6 6 4 4 4
21 20 20 19 18 17 17 17 16 16 15 15 12 6 9 6 8 9 10 11 7 10 15 8 10 16 13 16 18 14 11 11 9 8 6 6 4 2 6 3 3 2 3 3 4 3 2 3 2 4 1 4 3 1 4 1 3 4 3 1 1 1 2 2 2 3 5 4 6 5 0 2 1 4 3 3 4 4 6 6 4 3 4 5 4 5 5
21 20 20 19 19 18 18 18 17 17 16 16 14 7 10 6 5 7 8 10 11 12 9 3 2 7 9 10 9 7 7 9 12 10 10 8 3 6 6 10 9 2 2 1 2 2 1 1 2 1 4 3 1 4 0 3 4 1 2 2 2 3 6 2 2 1 4 4 3 3 3 2 2 3 1 2 2 5 8 6 7 6 5 4 3 6 5
19 19 19 19 19 19 18 18 18 17 17 16 12 6 9 5 3 3 5 10 9 10 8 10 9 11 11 14 11 11 13 12 10 6 6 8 9 10 9 9 10 3 2 0 2 2 3 4 5 2 2 3 5 2 2 3 2 0 2 2 3 3 2 1 2 3 2 4 7 2 2 3 3 1 1 5 4 3 5 6 4 4 5 7 6 5 5
20 20 20 20 20 20 20 19 18 17 17 17 12 7 8 7 6 4 5 8 9 9 8 10 9 11 13 15 14 13 12 11 11 13 9 9 12 12 8 6 5 2 3 4 2 4 2 1 3 3 3 2 3 2 3 4 4 2 1 3 1 2 2 2 4 2 1 4 2 3 3 0 0 1 1 0 2 4 5 4 4 4 4 5 4 5 5
21 21 21 20 20 20 20 19 19 19 18 18 15 9 8 7 5 6 8 8 4 7 9 3 11 13 13 11 11 10 12 14 13 14 12 11 13 13 15 3 3 3 5 4 1 1 1 4 3 4 5 3 0 4 2 2 4 2 5 4 1 2 3 3 4 3 5 5 0 1 1 1 1 3 3 3 2 2 3 4 4 4 5 5 5 4 2
22 22 20 20 21 21 21 21 20 19 18 19 16 7 8 10 6 7 9 9 8 6 9 10 11 4 1 4 7 8 7 10 11 12 13 15 16 16 15 9 8 3 2 1 1 6 3 3 3 3 2 4 1 1 2 1 2 2 3 5 2 2 3 2 1 2 3 3 3 2 3 3 1 1 2 3 4 4 4 4 3 2 3 2 2 3 3
22 22 21 21 21 20 21 21 20 20 19 19 11 7 8 8 8 9 8 6 6 7 7 11 10 6 4 9 3 3 6 11 10 10 11 11 12 10 9 9 10 8 8 5 2 3 3 4 4 4 3 4 2 2 1 3 1 3 3 3 1 1 3 1 1 3 4 5 3 1 1 3 2 2 5 5 3 3 2 0 1 2 3 3 3 3 1
22 23 22 21 21 20 20 21 20 20 19 18 12 9 7 9 10 10 10 10 10 11 6 5 3 3 6 13 10 12 10 6 7 8 9 11 11 10 10 10 10 9 6 6 6 4 4 5 5 2 1 1 4 4 2 2 2 5 10 6 3 4 4 3 5 3 5 2 3 3 1 1 4 5 5 3 1 2 2 3 4 5 4 4 4 4 2
22 22 22 22 21 20 19 19 20 19 19 17 7 8 10 11 11 11 12 10 11 10 8 9 7 7 9 3 2 2 2 4 7 10 10 9 9 9 10 11 11 9 7 4 3 3 3 4 2 3 2 3 1 4 1 4 4 10 5 3 6 7 4 5 5 4 5 3 3 2 1 4 3 3 2 3 1 1 3 4 5 5 5 4 4 4 4
23 23 21 21 21 21 19 18 18 19 18 7 5 5 6 9 9 10 12 12 11 7 7 6 7 5 2 2 9 6 4 5 7 5 5 5 8 10 10 10 9 8 7 4 4 4 4 3 2 1 2 2 4 2 3 2 5 6 2 5 7 6 5 7 8 9 8 1 1 1 2 3 4 4 4 4 4 3 3 5 7 5 3 4 4 3 3
23 22 22 21 20 21 21 20 19 19 15 5 3 5 5 8 1 1 10 12 12 9 4 2 9 3 6 4 3 8 7 5 5 7 8 8 8 8 6 5 4 5 3 2 2 3 1 1 1 2 1 4 4 2 3 3 6 2 3 5 6 6 7 10 8 4 4 4 2 0 0 4 4 3 4 5 5 3 2 4 3 5 5 4 4 5 4
23 23 22 22 21 22 22 21 20 17 8 7 8 8 4 1 3 2 2 9 7 9 7 8 6 5 4 3 3 4 9 7 5 4 3 4 4 5 5 7 4 4 5 3 2 0 3 2 3 2 2 3 3 2 3 6 12 8 2 4 4 5 6 5 4 4 1 2 1 3 3 4 2 4 5 3 3 4 4 5 3 4 6 5 4 3 2
23 22 22 22 22 22 20 20 23 16 8 12 17 21 21 24 21 17 6 1 7 5 2 3 5 1 3 4 2 1 2 3 2 5 4 6 5 4 4 3 2 1 3 2 2 4 1 2 2 3 4 3 3 3 4 11 12 2 3 6 5 5 7 5 4 3 3 3 4 4 4 4 6 6 6 6 5 4 4 3 3 5 5 5 3 1 1
23 22 22 22 22 21 20 21 22 22 17 11 11 11 11 17 16 19 9 4 2 1 1 3 2 6 5 1 2 1 3 4 3 6 5 4 4 4 4 4 4 3 2 6 1 1 1 2 2 2 1 3 1 2 11 9 5 9 9 8 7 6 5 4 4 5 6 6 4 6 7 7 6 5 4 4 6 5 2 4 5 6 3 4 3 3 2
22 22 20 20 21 22 22 20 10 6 8 8 9 9 8 14 16 13 11 5 3 3 3 4 2 4 4 1 4 2 3 4 4 6 6 1 2 5 3 3 3 5 2 3 1 3 2 3 4 3 5 3 4 8 10 1 3 6 6 7 8 8 4 4 6 9 9 8 5 5 5 4 3 5 7 6 6 1 5 3 4 6 5 3 3 4 3
21 21 21 20 21 17 8 7 6 6 6 8 9 3 10 12 13 10 10 9 5 2 3 2 3 8 5 6 3 2 3 3 2 3 2 2 1 1 2 3 4 3 2 4 3 3 4 3 3 5 5 5 11 9 6 5 9 5 6 8 8 8 8 10 9 6 7 5 6 5 4 2 4 6 6 5 3 5 6 7 3 2 5 5 5 5 3
20 21 22 19 8 5 6 4 3 6 7 5 4 8 7 4 3 5 8 8 5 4 4 2 5 5 7 4 1 3 1 3 1 3 0 2 3 0 2 3 6 2 3 4 3 4 5 3 3 4 6 11 8 4 10 9 9 7 6 7 7 7 8 7 8 7 5 5 5 3 4 4 4 4 4 4 5 5 5 6 8 8 6 7 5 4 5
20 18 9 5 3 4 2 3 4 4 9 8 7 1 4 6 4 2 2 3 3 4 4 4 5 1 3 3 4 1 4 3 2 4 3 2 2 3 1 2 4 3 4 2 4 4 3 2 4 6 10 10 11 12 15 11 7 5 8 8 8 8 9 8 6 5 5 5 5 5 5 3 4 5 5 5 5 7 9 7 6 6 5 5 6 5 3
14 7 4 3 3 4 4 2 3 6 5 2 3 1 2 0 3 3 4 3 3 5 2 4 4 5 5 6 4 1 3 2 1 1 3 2 2 3 1 3 1 2 1 1 2 7 3 3 4 5 11 6 8 17 16 9 9 11 11 10 9 8 7 8 8 11 11 11 11 9 7 7 6 7 5 5 4 4 3 3 4 5 5 5 4 4 3
5 4 3 3 6 7 2 2 5 6 2 2 1 1 3 2 4 3 2 3 2 2 3 5 3 5 9 9 7 6 2 4 5 4 3 1 0 2 1 1 1 3 3 4 3 4 3 3 4 5 8 5 12 16 7 6 9 10 8 9 11 12 10 10 10 10 11 11 10 9 7 6 6 6 5 5 5 6 5 4 5 6 5 6 5 5 5
4 3 3 5 3 2 2 3 2 2 2 3 1 2 2 3 3 1 2 4 2 1 2 2 2 4 6 5 6 7 1 1 0 1 2 4 0 2 1 2 1 1 2 3 1 2 2 1 3 5 7 7 12 4 3 6 8 8 8 9 10 10 10 10 10 9 9 9 8 7 6 6 6 6 5 6 7 8 8 7 6 6 6 5 6 6 4
4 5 4 1 1 2 3 1 2 1 1 1 2 4 3 1 1 1 1 3 3 2 4 4 5 6 6 9 6 3 0 0 1 0 2 3 2 3 2 1 1 3 3 2 4 1 2 3 3 4 9 10 6 1 3 5 5 5 9 9 9 9 8 8 9 8 9 10 9 8 8 7 7 5 5 6 8 8 6 6 6 6 8 7 5 4 4
11 6 3 2 1 1 1 3 3 2 3 3 3 3 2 3 2 3 1 1 1 2 2 2 0 1 2 3 3 1 2 1 2 1 2 3 1 0 2 2 2 3 3 3 2 2 5 5 3 9 3 2 4 5 6 8 8 7 9 8 8 7 7 7 9 9 8 10 9 9 8 7 6 6 6 7 7 4 3 4 7 8 7 7 7 5 5
7 4 3 1 3 3 2 5 2 2 2 2 3 4 3 2 2 2 3 4 3 3 5 7 6 7 5 2 3 3 1 0 0 1 1 1 2 2 2 3 3 1 2 1 2 5 4 2 6 7 1 2 3 4 5 5 6 6 6 8 7 5 5 6 5 4 5 6 6 7 5 4 4 5 6 5 7 8 7 5 5 7 6 6 6 5 5
4 2 3 3 3 2 3 3 2 2 4 3 3 3 4 6 6 6 6 2 2 5 6 3 6 6 4 2 3 1 1 2 1 1 2 3 1 1 2 2 1 1 1 2 2 2 1 4 5 7 5 7 8 7 6 7 6 7 7 5 5 5 5 6 7 7 6 6 8 6 5 6 6 7 7 6 5 5 6 6 5 6 6 7 6 5 4
4 5 4 3 3 2 2 2 2 1 2 1 4 5 5 3 4 4 2 1 4 4 7 7 8 5 4 0 3 3 2 2 2 2 2 1 2 2 1 1 1 0 1 1 2 3 5 5 4 4 3 5 6 7 5 5 5 3 2 5 8 5 5 6 6 7 7 6 5 7 7 7 7 6 4 3 3 3 3 4 6 8 7 7 7 6 5
3 1 1 0 1 2 1 3 3 4 3 3 4 5 5 5 4 4 3 3 5 5 4 4 3 2 5 3 1 1 1 1 1 0 2 1 1 0 1 1 2 2 3 2 3 4 5 5 5 5 5 6 6 6 5 6 5 4 6 7 7 6 5 6 7 7 7 7 7 7 7 7 7 7 6 2 1 2 4 5 6 7 9 10 7 5 6
4 1 2 2 3 3 6 5 2 1 1 2 3 4 2 2 5 2 2 2 4 6 7 6 5 2 2 1 1 1 1 0 2 2 2 1 1 1 0 0 2 1 2 3 7 4 4 3 4 6 6 4 4 6 8 8 6 6 6 7 7 6 5 6 6 6 6 7 8 8 8 7 7 7 7 6 4 3 5 6 7 7 6 4 5 5 6
2 3 4 2 1 2 2 2 5 3 3 0 0 1 2 5 4 4 4 3 5 6 5 5 3 2 2 2 2 1 0 1 2 2 1 1 2 3 2 3 2 3 4 5 5 4 5 5 6 4 5 5 5 5 7 7 7 7 7 7 6 6 5 6 6 5 6 6 7 8 8 7 6 6 5 4 5 5 5 6 7 6 5 7 6 6 5
2 1 0 2 2 0 1 1 4 4 1 0 1 1 1 2 3 2 2 3 3 6 3 4 2 3 1 1 2 1 1 1 1 1 2 3 3 1 0 4 4 4 3 3 4 5 6 7 3 4 5 4 5 6 6 8 6 6 5 4 3 3 4 6 6 6 7 7 7 5 4 4 4 5 7 8 5 5 6 5 5 6 4 4 6 6 6
1 0 1 0 2 4 6 7 8 4 2 3 3 4 5 6 6 4 3 5 6 5 2 2 1 2 1 0 1 2 2 2 2 3 3 2 3 3 4 4 4 5 6 5 5 5 6 4 3 4 5 5 6 6 5 5 5 2 1 0 2 3 4 5 7 8 8 8 7 6 6 5 5 5 3 5 7 7 6 4 4 5 5 4 4 5 6
2 3 3 1 2 3 3 3 2 2 4 4 5 4 4 4 3 3 4 7 6 7 6 2 3 2 1 3 2 1 1 1 2 2 1 3 2 3 5 7 8 5 5 5 6 5 4 5 4 4 5 6 6 5 4 3 1 2 2 1 2 5 6 6 7 9 8 6 6 6 4 4 4 4 5 7 7 7 8 6 3 3 3 4 3 3 5
Wind_Direction
352 352 354 356 357 357 356 358 359 358 357 10 344 336 19 27 255 278 307 330 352 52 58 289 37 260 237 292 282 266 297 234 286 346 313 301 77 19 213 206 175 251 176 203 175 173 231 163 210 199 198 248 206 230 165 138 75 81 327 35 270 113 82 55 288 308 296 316 313 48 85 102 62 15 66 100 223 174 175 168 181 170 288 303 322 233 254
350 352 354 354 356 357 357 358 0 360 6 359 324 10 12 287 286 314 301 359 31 72 62 319 311 303 329 23 287 281 242 317 317 298 304 179 336 201 235 351 200 259 138 127 201 194 244 237 187 301 211 260 234 202 174 176 167 148 225 146 240 120 291 129 330 349 339 340 350 8 342 47 113 171 245 202 86 71 132 102 36 294 218 181 161 257 280
349 351 354 354 354 355 356 357 357 359 359 360 341 8 315 292 256 234 300 341 24 66 166 107 358 354 344 327 330 331 334 211 236 224 287 294 231 34 273 219 154 185 164 159 94 214 183 284 251 163 195 235 316 298 164 203 185 203 216 161 148 151 202 114 223 251 281 285 281 265 288 225 240 259 296 267 150 138 105 271 42 197 279 165 187 254 253
349 349 350 352 353 353 355 355 356 356 355 355 5 338 351 17 354 309 334 359 13 59 50 81 70 56 5 355 291 303 309 328 325 276 276 220 259 202 265 337 97 50 79 185 216 222 259 180 235 161 254 276 309 244 169 182 194 220 161 151 119 155 111 167 179 185 221 222 218 251 115 57 271 264 163 225 203 175 120 111 135 222 219 205 230 223 273
347 346 348 349 351 353 354 356 356 355 351 350 335 314 123 254 69 337 333 336 38 77 47 32 39 12 357 336 336 333 340 284 312 31 327 349 23 303 148 254 137 263 98 250 264 250 296 255 76 216 201 250 236 303 205 279 256 184 150 153 80 79 203 238 201 219 224 213 213 212 171 243 245 248 256 218 202 170 154 174 226 172 329 275 217 221 239
345 345 346 347 348 350 355 357 356 353 350 345 338 25 354 41 270 68 36 110 288 354 349 14 344 313 13 273 349 269 332 330 304 322 249 326 330 355 328 36 283 183 197 160 201 191 224 156 224 308 236 324 322 333 42 193 263 196 159 161 145 147 202 261 155 248 238 234 232 225 226 215 226 221 228 239 236 164 195 227 214 156 224 251 263 159 225
342 343 344 347 350 349 350 355 356 352 349 345 356 52 334 145 272 239 331 339 299 279 292 325 276 306 336 263 219 275 269 268 236 218 317 338 312 81 278 299 282 307 41 89 254 169 221 292 256 200 230 213 203 267 322 280 294 155 127 163 171 110 240 205 181 240 254 253 237 232 219 249 241 233 228 220 226 238 227 240 224 198 234 247 266 266 254
339 340 342 344 347 347 348 350 355 357 353 348 27 64 34 354 10 330 359 248 286 301 315 314 324 292 259 271 239 179 258 283 317 307 216 287 283 341 245 273 308 322 308 170 219 221 202 209 252 246 192 293 148 227 197 179 349 137 186 162 260 159 272 139 155 235 264 247 247 248 226 222 249 242 227 224 230 242 244 246 259 240 265 264 267 280 282
335 338 339 341 342 344 345 347 353 3 7 24 27 326 23 327 354 333 318 299 273 249 235 283 352 314 327 219 263 189 249 260 260 263 250 257 263 280 283 308 317 338 346 292 262 246 231 266 249 241 190 249 214 191 271 168 173 179 152 150 228 151 252 52 102 274 277 212 201 235 245 258 251 259 210 232 228 242 244 228 227 209 238 253 279 290 268
328 329 334 337 338 341 342 344 350 3 28 48 327 344 359 336 349 355 319 288 266 277 253 267 293 267 216 214 248 234 261 237 344 324 277 271 198 71 15 331 2 298 344 296 262 278 280 269 266 266 262 261 272 234 245 175 179 191 194 148 141 177 151 169 143 228 258 271 194 161 34 345 287 246 202 219 219 218 236 242 231 218 215 231 233 239 235
322 325 325 329 332 335 340 342 344 1 49 17 353 329 358 8 346 347 336 290 270 243 275 260 237 248 279 272 295 289 297 314 2 269 273 7 279 45 14 336 324 287 271 263 277 253 259 258 266 279 258 256 258 253 247 245 228 174 164 149 194 127 154 189 159 216 252 306 100 72 40 271 254 218 194 192 208 217 222 239 224 222 167 212 207 231 180
318 320 322 322 328 328 331 334 339 335 360 165 47 301 277 210 299 275 287 259 269 206 248 257 238 284 269 276 268 275 279 276 269 249 280 275 280 310 309 298 209 280 242 287 317 296 259 235 249 267 236 316 303 313 226 222 231 262 183 168 175 167 171 199 165 192 265 144 110 290 249 252 313 213 344 205 218 207 212 233 231 221 210 132 123 130 155
310 312 313 316 315 319 320 324 325 323 317 263 127 280 334 76 31 316 319 289 272 247 256 259 266 273 280 285 281 270 270 269 265 263 262 272 286 281 259 266 258 256 51 349 347 355 322 286 295 263 270 304 303 290 260 240 252 235 235 206 143 173 173 147 210 146 52 80 124 236 256 251 285 274 355 107 102 154 138 289 297 232 192 183 174 174 165
305 306 308 310 314 313 310 310 312 305 301 271 210 230 251 257 247 210 212 247 268 257 265 282 271 263 267 270 275 277 280 275 272 263 269 266 267 264 262 236 237 149 19 98 45 340 309 13 291 316 288 358 340 277 239 221 219 218 207 217 201 171 136 142 237 165 224 188 195 238 325 314 260 239 248 176 196 178 168 225 271 239 209 158 149 152 172
303 304 304 303 304 307 307 304 300 295 292 291 233 236 223 227 230 215 231 253 273 288 261 258 298 351 314 300 303 306 294 303 298 267 261 272 266 259 251 247 212 16 131 154 296 126 214 242 265 264 270 216 242 250 54 220 257 213 208 207 190 168 189 187 216 226 207 221 256 293 290 261 288 210 275 325 284 141 161 134 279 263 264 202 141 157 167
301 300 302 301 300 299 301 301 299 295 290 284 255 253 240 223 221 271 265 239 275 285 264 221 239 268 271 279 286 277 285 286 274 292 291 273 265 284 268 245 257 124 47 73 147 156 170 213 241 248 249 249 274 277 254 220 280 330 260 225 192 223 243 183 208 209 91 174 216 231 246 251 162 214 218 302 177 125 113 62 287 230 216 189 142 157 191
299 298 296 295 296 296 295 294 290 289 285 276 245 234 239 207 203 217 256 261 217 237 277 345 351 322 305 293 270 244 233 253 280 278 283 283 300 312 315 309 293 161 172 134 220 190 214 220 230 241 268 201 233 241 334 161 249 287 29 69 210 218 216 129 221 224 214 211 204 230 216 251 195 220 266 282 140 71 53 320 272 208 196 196 152 155 178
293 295 296 294 294 293 292 292 290 285 281 281 273 243 229 206 214 197 226 246 263 272 259 265 282 285 265 255 276 292 302 287 283 292 272 301 312 277 269 350 292 238 162 226 163 216 219 220 225 221 241 192 185 57 241 136 203 192 182 168 168 200 265 154 221 227 237 218 246 322 289 274 247 229 242 231 162 79 175 241 236 188 192 194 175 169 187
288 288 289 290 290 290 288 286 283 280 277 274 274 283 243 221 224 214 226 235 238 255 266 170 210 245 266 284 267 256 244 282 294 293 294 304 266 203 279 262 298 299 241 200 218 224 218 236 209 214 230 224 139 218 177 204 220 149 138 115 253 246 128 291 156 216 217 211 217 242 279 234 178 246 157 191 118 214 215 236 199 150 185 198 176 180 202
283 282 283 284 284 283 284 284 281 279 279 280 273 253 256 219 209 211 217 238 236 264 267 251 236 261 262 262 266 274 303 270 229 243 247 262 4 351 329 305 268 173 287 178 248 219 230 232 217 195 231 215 243 136 332 253 37 185 185 260 183 201 142 217 199 154 45 118 213 166 242 14 87 123 71 179 144 240 182 125 111 166 174 177 210 182 217
279 279 279 280 280 280 279 277 277 275 272 271 271 268 270 219 216 223 224 231 247 261 268 255 219 236 234 242 248 247 249 256 274 291 291 296 336 302 236 235 343 346 238 215 222 204 199 243 203 209 254 169 249 149 222 128 311 274 156 196 169 280 88 209 215 180 158 160 187 209 202 152 245 140 181 224 200 165 156 136 163 214 180 185 194 221 203
275 275 276 276 276 276 276 275 274 273 271 270 269 256 258 238 200 217 222 227 236 241 264 285 297 277 268 257 254 250 241 244 251 248 262 277 247 254 281 305 295 280 281 354 346 298 357 240 333 317 250 237 291 216 311 161 227 208 6 142 251 186 177 184 176 182 147 204 215 238 210 193 222 163 195 201 175 149 168 156 169 172 229 192 173 220 216
276 276 277 277 277 277 276 272 268 268 268 268 264 243 257 264 228 217 217 242 245 258 266 275 275 266 262 257 249 235 235 240 249 248 221 256 277 261 252 269 275 244 231 237 213 291 295 302 255 256 292 239 212 213 268 202 263 156 178 262 175 10 119 123 101 257 222 247 209 179 154 230 262 229 170 157 156 177 158 157 156 222 195 176 190 202 200
276 277 278 279 279 278 276 273 268 264 264 262 257 230 249 246 234 235 239 245 250 264 266 248 255 253 245 249 241 238 243 235 222 226 214 205 244 272 265 223 247 278 234 223 189 205 218 234 243 315 276 261 111 215 204 224 212 185 103 292 284 232 153 132 180 257 121 265 46 174 222 110 316 240 48 82 159 171 174 170 189 197 191 189 203 173 185
273 275 275 274 276 276 274 271 270 268 264 264 265 264 261 255 224 205 224 241 218 241 259 254 233 246 249 238 233 227 222 230 223 223 214 203 219 236 248 198 146 231 294 314 351 319 118 217 217 207 234 273 72 249 233 170 281 139 209 223 133 314 169 156 217 195 185 232 208 300 300 248 219 175 150 180 200 218 199 199 202 196 190 182 187 161 191
274 275 274 276 277 277 274 270 264 262 261 262 261 242 240 250 230 221 225 240 250 247 260 254 270 264 283 227 225 221 215 217 219 218 213 214 218 226 247 262 264 206 222 280 173 250 196 229 213 237 223 268 90 211 279 252 264 342 172 245 202 232 17 207 204 197 287 329 299 302 350 352 332 315 284 235 206 203 220 226 220 187 167 190 149 168 189
274 273 272 272 274 275 276 272 267 265 265 265 261 245 251 253 232 220 213 223 248 259 220 247 261 261 245 238 229 243 219 217 215 216 221 222 221 226 233 236 242 246 250 257 228 220 226 210 188 213 185 248 26 217 301 315 355 294 279 266 292 296 258 240 36 298 262 225 247 114 345 293 307 278 249 257 249 201 239 313 274 215 207 184 184 239 202
273 275 273 272 272 272 271 269 265 263 263 264 264 260 241 246 238 223 221 219 216 250 288 301 280 271 319 291 259 238 235 215 201 208 219 225 221 221 223 227 228 229 219 216 236 210 215 211 219 181 131 268 316 276 187 220 303 265 246 233 174 219 223 191 232 184 255 218 216 200 187 256 230 239 276 280 284 156 181 209 227 233 217 182 181 224 295
270 272 272 272 272 271 271 272 270 270 268 267 268 267 259 246 242 228 228 219 225 239 250 266 289 288 261 233 53 338 281 191 193 210 219 223 213 212 217 221 224 220 221 209 225 229 196 225 147 148 154 218 140 271 266 237 229 246 242 137 189 231 203 213 230 247 250 216 251 194 207 254 278 295 261 269 253 191 233 244 238 227 198 176 180 191 197
270 271 270 271 270 271 269 267 268 268 267 258 248 254 269 269 221 212 209 211 209 229 235 240 248 255 312 245 244 238 221 198 211 204 201 206 212 214 210 213 221 216 215 186 179 210 218 181 257 234 206 137 131 237 244 221 243 254 194 195 216 225 228 231 236 224 246 200 176 200 194 264 247 252 274 277 276 232 228 237 239 226 189 157 162 183 183
268 267 268 269 270 269 268 269 269 267 269 258 232 233 228 263 13 231 206 204 198 203 226 207 252 353 305 238 193 204 186 156 186 195 204 204 215 213 218 211 238 192 204 207 178 227 218 309 158 236 213 190 138 223 235 254 263 272 244 201 210 211 216 230 239 242 252 283 311 171 313 271 285 339 305 271 269 286 290 285 244 183 161 148 161 165 196
267 267 267 268 268 268 269 269 264 260 252 234 224 219 199 184 166 63 80 226 190 205 209 231 252 230 251 273 234 187 170 185 157 151 178 163 202 195 207 198 217 190 181 181 227 205 236 190 138 202 158 206 128 245 206 238 252 243 156 244 251 228 237 249 270 269 209 200 139 5 348 307 269 204 247 261 284 300 281 272 203 142 137 144 155 164 181
266 266 265 266 266 268 268 266 266 264 231 244 245 247 252 262 266 274 325 69 195 218 172 216 230 251 240 243 336 318 131 84 151 149 201 177 197 162 211 173 143 11 223 187 225 203 218 131 169 187 211 167 171 240 240 239 243 218 218 226 229 219 223 228 229 238 215 194 161 206 234 237 273 256 231 256 279 274 270 186 159 119 111 118 136 167 277
268 268 264 264 266 267 267 266 264 265 264 255 253 251 244 238 247 252 238 196 235 287 190 222 204 226 243 50 15 241 126 146 190 165 220 174 171 153 190 153 181 183 216 185 257 83 300 96 155 205 189 252 182 254 250 251 219 229 226 222 222 230 225 238 252 261 257 252 220 207 227 241 252 287 300 278 281 279 185 140 136 119 135 141 177 201 208
267 269 269 267 268 270 275 282 285 260 253 252 256 252 240 232 225 227 218 166 184 208 203 229 195 265 246 235 223 247 159 135 194 194 220 263 159 166 156 150 178 187 234 93 159 174 152 207 154 182 220 136 208 233 241 198 215 210 216 226 228 229 251 260 261 240 247 247 246 242 238 232 259 275 264 269 268 229 127 155 162 143 147 187 197 222 210
267 269 271 268 269 273 278 262 237 245 240 236 239 221 224 230 227 207 193 195 171 217 225 221 178 229 212 247 242 238 149 200 175 156 180 115 295 181 129 147 204 200 109 152 216 153 179 169 123 236 143 184 226 222 245 212 239 223 206 216 218 201 208 206 225 223 223 230 227 237 257 234 206 243 260 258 198 158 155 147 156 158 170 180 210 224 217
262 263 269 277 281 264 244 231 213 201 221 189 170 188 214 214 210 197 203 206 200 187 220 215 225 214 186 239 348 296 31 241 114 81 26 239 215 17 144 162 203 164 164 181 164 177 214 145 185 230 200 227 243 221 242 243 238 238 231 224 227 228 230 231 226 229 242 237 232 245 238 248 256 249 251 239 204 199 163 167 170 175 186 197 205 207 218
262 270 274 263 228 222 238 235 211 228 221 212 158 131 209 177 205 158 128 198 190 172 223 206 238 130 127 185 246 162 151 243 109 167 179 164 152 234 204 180 218 136 216 167 215 138 118 173 228 236 250 240 257 260 255 246 245 236 242 240 230 225 228 229 216 210 229 261 275 260 257 245 252 252 223 234 199 200 204 189 179 186 185 187 192 194 183
270 263 244 193 189 224 207 237 240 185 132 145 132 136 230 342 150 202 200 156 158 211 155 201 216 155 161 203 229 321 197 169 279 223 195 208 154 248 171 180 217 91 234 114 244 132 211 207 227 237 257 238 249 250 249 254 252 246 245 246 241 235 219 225 206 205 210 219 226 226 202 215 229 248 221 224 214 204 183 164 168 181 188 190 187 187 172
213 218 197 168 207 227 204 233 158 118 63 137 214 192 222 188 199 223 124 186 184 178 147 212 179 182 187 201 201 231 153 138 183 214 200 293 227 190 237 68 219 116 198 177 198 129 159 211 214 237 258 200 237 250 241 219 239 246 243 246 246 246 236 225 225 219 221 228 227 233 221 214 214 217 209 204 192 188 187 180 179 180 184 189 187 176 188
207 156 173 217 225 183 186 134 59 71 133 176 212 245 204 204 215 205 164 210 183 199 176 161 158 184 195 184 179 220 217 97 32 114 159 233 202 83 113 175 111 147 214 190 186 108 161 215 240 230 247 214 232 240 170 218 230 244 239 235 238 240 237 230 229 221 212 225 231 234 230 216 214 218 206 188 192 201 193 180 177 184 182 177 185 201 187
174 171 191 181 143 101 73 59 125 113 235 197 202 219 198 229 145 235 212 179 198 174 211 162 180 186 191 182 189 146 195 196 122 175 170 234 200 157 191 198 202 211 235 194 123 142 144 215 228 255 243 246 268 270 205 239 239 234 245 238 236 238 236 228 228 222 204 211 216 219 219 212 215 213 199 187 196 196 180 169 170 180 190 195 193 175 156
185 171 116 82 102 100 105 204 192 190 198 195 174 230 176 210 188 158 199 243 264 149 198 82 285 95 353 81 51 5 164 173 174 155 180 218 57 29 185 177 166 219 198 110 148 186 198 222 220 250 282 267 227 220 220 228 240 237 244 248 242 238 229 227 222 224 206 203 209 211 211 205 202 197 188 183 179 168 167 162 179 186 185 183 194 184 167
180 140 168 145 180 215 152 224 164 143 221 201 172 197 148 182 212 183 182 209 176 195 189 157 188 164 185 176 153 142 137 236 147 104 222 90 138 188 177 213 201 280 49 112 189 215 222 225 231 260 277 304 311 254 235 242 236 246 262 259 255 246 227 227 226 217 213 201 209 211 202 185 173 183 177 174 161 175 200 193 197 186 176 173 185 181 168
116 139 130 151 196 171 151 233 136 179 210 198 174 199 178 194 198 192 201 213 137 182 164 143 150 173 159 172 68 232 179 144 71 162 213 139 163 230 168 238 132 45 162 226 256 294 6 278 249 250 254 253 258 262 242 241 238 234 246 279 266 235 214 209 215 207 206 188 196 185 177 176 168 176 172 165 163 167 167 190 180 170 174 178 183 161 160
173 155 140 177 186 179 194 236 151 234 280 162 204 194 187 210 149 182 219 139 102 116 160 181 176 152 117 164 168 182 125 133 138 216 146 120 127 217 215 55 75 69 305 267 267 237 225 235 238 241 234 244 261 264 258 251 255 242 215 248 261 246 220 213 210 201 198 186 177 170 175 169 166 154 149 190 142 149 181 193 176 177 169 164 179 176 161
120 154 144 209 198 208 174 198 208 204 183 207 210 191 191 185 187 151 162 144 159 173 116 64 87 125 137 140 68 2 67 96 131 194 76 83 183 233 27 110 228 183 206 236 242 247 251 241 246 262 258 259 269 279 279 274 263 238 235 243 260 257 219 207 203 195 193 174 170 165 154 153 148 145 133 143 243 214 203 182 179 172 165 179 177 147 142
156 150 155 167 209 161 183 221 192 267 255 202 240 204 221 129 114 161 218 168 141 125 127 129 113 99 52 311 87 162 169 231 89 284 176 189 65 52 68 234 243 232 193 194 233 231 251 245 243 250 254 260 273 287 290 287 281 262 250 250 250 244 215 196 193 189 168 161 163 154 149 151 153 145 154 192 205 193 181 174 174 175 165 129 123 138 142
129 147 168 213 196 153 194 177 144 192 205 154 313 99 117 143 201 187 167 134 140 157 154 132 167 119 161 165 107 93 331 248 128 200 110 143 163 201 183 232 166 248 249 208 243 230 235 248 245 251 274 290 281 273 276 275 273 274 261 250 247 223 186 178 179 167 152 147 146 145 151 153 146 153 161 164 183 190 177 165 168 160 150 148 151 148 147
133 149 127 127 79 316 234 82 138 201 195 118 132 152 228 212 226 232 180 128 121 108 100 74 79 96 184 165 158 140 188 192 194 109 126 185 192 229 277 245 212 204 247 222 223 241 242 252 278 294 282 283 288 287 288 292 285 267 262 250 206 155 155 158 152 143 134 130 124 122 130 137 155 164 176 188 178 144 142 154 162 146 147 148 152 156 161
290 271 205 194 157 204 155 175 185 188 227 239 203 202 187 211 202 206 176 130 137 124 122 146 177 109 112 66 143 178 202 140 134 187 176 180 175 160 199 227 239 215 230 223 224 243 256 261 236 264 286 285 281 284 269 273 291 309 35 73 114 124 133 141 135 132 133 141 141 135 153 182 186 173 150 120 124 133 135 149 156 151 153 153 162 160 158
142 140 180 254 84 106 112 65 37 199 201 214 217 232 158 222 216 196 165 126 142 153 187 167 125 137 141 187 204 166 52 55 204 134 127 264 166 160 214 212 237 220 217 246 263 251 247 257 239 234 239 258 272 272 265 275 326 45 59 97 145 143 138 137 141 144 144 146 157 159 141 141 137 125 122 125 125 130 139 166 190 158 152 156 171 174 162